Météo par heure à Juncza

Ce jour, 20 Juin, Dimanche

Heure Température Précipitation Vent Pression Humidité
00:00 +22°C° 0 mm 3 m/s 746 mmHg 80%
01:00 +21°C° 0 mm 3 m/s 746 mmHg 82%
02:00 +21°C° 0 mm 3 m/s 746 mmHg 84%
03:00 +20°C° 0 mm 3 m/s 746 mmHg 86%
04:00 +19°C° 0 mm 3 m/s 745 mmHg 88%
05:00 +21°C° 0 mm 3 m/s 746 mmHg 81%
06:00 +22°C° 0 mm 4 m/s 746 mmHg 75%
07:00 +25°C° 0 mm 4 m/s 746 mmHg 68%
08:00 +26°C° 0 mm 4 m/s 746 mmHg 62%
09:00 +27°C° 0 mm 4 m/s 746 mmHg 57%
10:00 +28°C° 0 mm 4 m/s 746 mmHg 51%
11:00 +29°C° 0 mm 4 m/s 746 mmHg 49%
12:00 +29°C° 0 mm 5 m/s 745 mmHg 47%
13:00 +30°C° 0 mm 5 m/s 745 mmHg 45%
14:00 +30°C° 0 mm 5 m/s 745 mmHg 46%
15:00 +30°C° 0 mm 4 m/s 744 mmHg 47%
16:00 +30°C° 0 mm 4 m/s 744 mmHg 48%
17:00 +29°C° 0 mm 4 m/s 744 mmHg 56%
18:00 +27°C° 0 mm 3 m/s 744 mmHg 63%
19:00 +26°C° 0 mm 3 m/s 743 mmHg 70%
20:00 +25°C° 0 mm 3 m/s 743 mmHg 76%
21:00 +22°C° 0 mm 3 m/s 743 mmHg 82%
22:00 +21°C° 0 mm 3 m/s 744 mmHg 88%
23:00 +21°C° 0 mm 3 m/s 743 mmHg 90%

Demain, 21 Juin, Lundi

Heure Température Précipitation Vent Pression Humidité
00:00 +20°C° 0 mm 3 m/s 743 mmHg 92%
01:00 +20°C° 0 mm 3 m/s 743 mmHg 94%
02:00 +20°C° 0 mm 3 m/s 743 mmHg 94%
03:00 +20°C° 0 mm 2 m/s 743 mmHg 94%
04:00 +19°C° 0 mm 2 m/s 743 mmHg 94%
05:00 +21°C° 0 mm 3 m/s 743 mmHg 86%
06:00 +23°C° 0 mm 4 m/s 743 mmHg 78%
07:00 +25°C° 0 mm 4 m/s 743 mmHg 70%
08:00 +26°C° 0 mm 5 m/s 743 mmHg 64%
09:00 +27°C° 0 mm 5 m/s 743 mmHg 59%
10:00 +29°C° 0 mm 6 m/s 743 mmHg 53%
11:00 +29°C° 0 mm 6 m/s 742 mmHg 51%
12:00 +30°C° 0 mm 6 m/s 742 mmHg 48%
13:00 +30°C° 0 mm 5 m/s 742 mmHg 45%
14:00 +30°C° 0 mm 5 m/s 742 mmHg 47%
15:00 +29°C° 0 mm 5 m/s 741 mmHg 49%
16:00 +29°C° 0 mm 5 m/s 741 mmHg 51%
17:00 +28°C° 0 mm 4 m/s 741 mmHg 58%
18:00 +26°C° 0 mm 4 m/s 741 mmHg 65%
19:00 +25°C° 0 mm 3 m/s 741 mmHg 72%
20:00 +24°C° 0 mm 3 m/s 741 mmHg 76%
21:00 +22°C° 0 mm 3 m/s 741 mmHg 81%
22:00 +21°C° 0 mm 3 m/s 741 mmHg 85%
23:00 +20°C° 0.2 mm 3 m/s 741 mmHg 88%

Après-demain, 22 Juin, Mardi

Heure Température Précipitation Vent Pression Humidité
00:00 +20°C° 0.2 mm 3 m/s 741 mmHg 91%
01:00 +20°C° 0.2 mm 3 m/s 741 mmHg 94%
02:00 +20°C° 0 mm 2 m/s 741 mmHg 94%
03:00 +20°C° 0 mm 2 m/s 741 mmHg 94%
04:00 +19°C° 0 mm 2 m/s 741 mmHg 94%
05:00 +21°C° 0 mm 2 m/s 741 mmHg 89%
06:00 +23°C° 0 mm 2 m/s 741 mmHg 84%
07:00 +24°C° 0 mm 2 m/s 742 mmHg 79%
08:00 +25°C° 0.7 mm 1 m/s 742 mmHg 76%
09:00 +26°C° 0.7 mm 1 m/s 742 mmHg 73%
10:00 +27°C° 0.7 mm 1 m/s 742 mmHg 70%
11:00 +27°C° 0.5 mm 2 m/s 743 mmHg 74%
12:00 +26°C° 0.5 mm 2 m/s 743 mmHg 78%
13:00 +25°C° 0.5 mm 2 m/s 743 mmHg 82%
14:00 +25°C° 0.4 mm 2 m/s 743 mmHg 82%
15:00 +25°C° 0.4 mm 3 m/s 744 mmHg 82%
16:00 +24°C° 0.4 mm 3 m/s 744 mmHg 82%
17:00 +24°C° 0.3 mm 3 m/s 744 mmHg 84%
18:00 +22°C° 0.3 mm 3 m/s 744 mmHg 87%
19:00 +21°C° 0.3 mm 3 m/s 745 mmHg 89%
20:00 +19°C° 0 mm 3 m/s 745 mmHg 90%
21:00 +18°C° 0 mm 3 m/s 745 mmHg 91%
22:00 +17°C° 0 mm 3 m/s 745 mmHg 92%
23:00 +16°C° 0 mm 3 m/s 745 mmHg 92%

23 Juin, Mercredi

Heure Température Précipitation Vent Pression Humidité
00:00 +14°C° 0 mm 3 m/s 745 mmHg 91%
01:00 +15°C° 0 mm 2 m/s 745 mmHg 91%
02:00 +14°C° 0 mm 2 m/s 745 mmHg 89%
03:00 +14°C° 0 mm 2 m/s 745 mmHg 88%
04:00 +14°C° 0 mm 2 m/s 745 mmHg 87%
05:00 +16°C° 0 mm 2 m/s 745 mmHg 81%
06:00 +18°C° 0 mm 3 m/s 745 mmHg 75%
07:00 +20°C° 0 mm 3 m/s 745 mmHg 69%
08:00 +22°C° 0 mm 3 m/s 745 mmHg 67%
09:00 +25°C° 0 mm 2 m/s 745 mmHg 65%
10:00 +28°C° 0 mm 2 m/s 745 mmHg 62%
11:00 +28°C° 0 mm 2 m/s 745 mmHg 60%
12:00 +29°C° 0 mm 2 m/s 745 mmHg 57%
13:00 +30°C° 0 mm 2 m/s 745 mmHg 55%
14:00 +30°C° 0.8 mm 2 m/s 745 mmHg 59%
15:00 +29°C° 0.8 mm 2 m/s 745 mmHg 64%
16:00 +29°C° 0.8 mm 2 m/s 745 mmHg 69%
17:00 +28°C° 1 mm 2 m/s 745 mmHg 74%
18:00 +26°C° 1 mm 2 m/s 745 mmHg 80%
19:00 +25°C° 1 mm 2 m/s 745 mmHg 86%
20:00 +24°C° 0.2 mm 2 m/s 745 mmHg 89%
21:00 +21°C° 0.2 mm 2 m/s 745 mmHg 93%
22:00 +20°C° 0.2 mm 2 m/s 745 mmHg 96%
23:00 +19°C° 0 mm 2 m/s 745 mmHg 97%

24 Juin, Jeudi

Heure Température Précipitation Vent Pression Humidité
00:00 +19°C° 0 mm 3 m/s 746 mmHg 97%
01:00 +18°C° 0 mm 3 m/s 746 mmHg 97%
02:00 +17°C° 0 mm 3 m/s 746 mmHg 97%
03:00 +16°C° 0 mm 3 m/s 746 mmHg 98%
04:00 +16°C° 0 mm 2 m/s 746 mmHg 98%
05:00 +16°C° 0 mm 3 m/s 746 mmHg 94%
06:00 +17°C° 0 mm 3 m/s 747 mmHg 91%
07:00 +18°C° 0 mm 3 m/s 747 mmHg 88%
08:00 +19°C° 0 mm 3 m/s 747 mmHg 82%
09:00 +20°C° 0 mm 3 m/s 747 mmHg 77%
10:00 +21°C° 0 mm 3 m/s 748 mmHg 71%
11:00 +24°C° 0 mm 3 m/s 748 mmHg 66%
12:00 +25°C° 0 mm 3 m/s 748 mmHg 62%
13:00 +26°C° 0 mm 3 m/s 747 mmHg 57%
14:00 +26°C° 0 mm 2 m/s 747 mmHg 56%
15:00 +26°C° 0 mm 2 m/s 747 mmHg 55%
16:00 +27°C° 0 mm 1 m/s 747 mmHg 54%
17:00 +26°C° 0 mm 1 m/s 747 mmHg 61%
18:00 +24°C° 0 mm 1 m/s 746 mmHg 67%
19:00 +23°C° 0 mm 2 m/s 746 mmHg 74%
20:00 +21°C° 0 mm 2 m/s 746 mmHg 80%
21:00 +19°C° 0 mm 3 m/s 746 mmHg 87%
22:00 +18°C° 0 mm 3 m/s 746 mmHg 93%
23:00 +17°C° 0 mm 3 m/s 746 mmHg 94%

25 Juin, Vendredi

Heure Température Précipitation Vent Pression Humidité
00:00 +17°C° 0 mm 3 m/s 746 mmHg 95%
01:00 +16°C° 0 mm 2 m/s 746 mmHg 96%
02:00 +16°C° 0.7 mm 3 m/s 746 mmHg 95%
03:00 +16°C° 0.7 mm 3 m/s 745 mmHg 95%
04:00 +16°C° 0.7 mm 3 m/s 745 mmHg 95%
05:00 +16°C° 0.5 mm 3 m/s 745 mmHg 94%
06:00 +17°C° 0.5 mm 3 m/s 745 mmHg 94%
07:00 +17°C° 0.5 mm 3 m/s 745 mmHg 93%
08:00 +18°C° 0 mm 3 m/s 745 mmHg 90%
09:00 +19°C° 0 mm 3 m/s 745 mmHg 86%
10:00 +20°C° 0 mm 3 m/s 745 mmHg 82%
11:00 +19°C° 0.1 mm 3 m/s 745 mmHg 83%
12:00 +18°C° 0.1 mm 4 m/s 745 mmHg 84%
13:00 +17°C° 0.1 mm 5 m/s 746 mmHg 84%
14:00 +16°C° 0.2 mm 5 m/s 746 mmHg 86%
15:00 +15°C° 0.2 mm 5 m/s 746 mmHg 88%
16:00 +14°C° 0.2 mm 5 m/s 746 mmHg 90%
17:00 +14°C° 0 mm 4 m/s 747 mmHg 88%
18:00 +14°C° 0 mm 4 m/s 747 mmHg 87%
19:00 +14°C° 0 mm 3 m/s 747 mmHg 86%
20:00 +14°C° 0 mm 3 m/s 747 mmHg 89%
21:00 +14°C° 0 mm 2 m/s 747 mmHg 93%
22:00 +13°C° 0 mm 2 m/s 748 mmHg 96%
23:00 +12°C° 0 mm 2 m/s 748 mmHg 96%
Voir plus

Nous avons besoin de votre consentement

Meteoprog et ses fournisseurs de services peuvent stocker et accéder à des données personnelles telles que des cookies, des identifiants d'appareils ou d'autres technologies similaires sur votre appareil et traiter ces données pour personnaliser le contenu et les publicités, ainsi que pour fournir des fonctionnalités de médias sociaux et analyser le trafic.

  • Stocker et/ou accéder à des informations sur votre appareil

    Des cookies, des identifiants d'appareils ou d'autres informations peuvent être stockés ou accessibles sur votre appareil aux fins indiquées ci-dessus.

  • Annonces et contenus personnalisés, mesure des annonces et des contenus, connaissance de l'audience et développement de produits

    Les annonces et le contenu peuvent être personnalisés en fonction d'un profil. D'autres données peuvent être ajoutées pour mieux personnaliser les annonces et le contenu. Les performances des publicités et du contenu peuvent être mesurées. Il est possible d'obtenir des informations sur le public qui a vu les publicités et le contenu. Ces données peuvent être utilisées pour développer ou améliorer l'expérience de l'utilisateur, les systèmes et les logiciels.

En cliquant sur "J'accepte", vous autorisez l'utilisation de cookies, des identifiants d'appareils, des balises web ou d'autres technologies similaires. Vos paramètres peuvent être modifiés dans le navigateur de votre appareil.

Dans certains cas, des intérêts légitimes peuvent être invoqués plutôt qu'un consentement. Vous pouvez en savoir plus à ce sujet dans notre Politique de confidentialité et de cookies.